Regional Weather Roundup
Issued by NWS State College, PA

Home | Current Version | Previous Version | Text Only | Print | Product List | Glossary On
Versions: 1 2 3 4 5 6 7 8 9 10 11 12 13 14 15 16 17 18 19 20 21 22 23 24 25 26 27 28 29 30 31 32 33 34 35 36 37 38 39 40 41 42 43 44 45 46 47 48 49 50
000
ASUS41 KCTP 192303
RWRCTP

REGIONAL WEATHER ROUNDUP
NATIONAL WEATHER SERVICE STATE COLLEGE PA
600 PM EST MON FEB 19 2018

Note: "fair" indicates few or no clouds below 12,000 feet with no
significant weather and/or obstructions to visibility.

* = STATION THAT DOES NOT REPORT PRECIPITATION /E.G. RAIN...SNOW...ETC/
    THUNDER OR FOG.

PAZ002>004-007>009-013>016-020>023-029>032-200000-
WESTERN PENNSYLVANIA

CITY           SKY/WX    TMP DP  RH WIND       PRES   REMARKS
ERIE           LGT RAIN  58  53  84 S18G28    30.03R
MEADVILLE      LGT RAIN  53  53 100 VRB5      30.07S FOG
FRANKLIN*      LGT RAIN  51  50  96 S9        30.11F FOG
NEW CASTLE     CLOUDY    56  56 100 S7        30.09F
BEAVER COUNTY  PTCLDY    55  54  94 SE6       30.10F
BUTLER*        LGT RAIN  56  54  93 SE7       30.12F
PITTSBURGH INT CLOUDY    64  55  72 S9        30.10F
PITTSBURGH     MOCLDY    60  54  80 SE6       30.12F
INDIANA*       CLOUDY    52  52 100 CALM      30.19F
LATROBE        CLOUDY    57  57 100 CALM      30.16R
WASHINGTON CO* CLOUDY    67  55  65 S8        30.15
$$

PAZ004>006-010>012-017>019-024>028-033>037-041-042-045-046-049>053-200000-
CENTRAL PENNSYLVANIA

CITY           SKY/WX    TMP DP  RH WIND       PRES   REMARKS
BRADFORD       LGT RAIN  48  48 100 S6        30.13S FOG
DUBOIS         FOG       44  43  96 SE7       30.15S VSB 1/4
CLEARFIELD     LGT RAIN  39  39 100 NE5       30.21R
JOHNSTOWN      CLOUDY    46  44  93 S6        30.19R
ALTOONA        FOG       39  37  92 E6        30.25R VSB 3/4
STATE COLLEGE  CLOUDY    39  39 100 W5        30.24R
WILLIAMSPORT   CLOUDY    40  39  97 CALM      30.28R
SELINSGROVE    CLOUDY    40  38  93 CALM      30.30R FOG
FT INDIANTOWN  FOG       38  38 100 NE3       30.32S VSB 3/4
CAPITAL CITY   LGT RAIN  44  44 100 E5        30.31S FOG
HARRISBURG     LGT RAIN  42  40  92 SE5       30.31S
YORK           CLOUDY    46  45  96 VRB7      30.31R
$$

PAZ038>040-043-044-047-048-054-055-060>062-067>071-200000-
EASTERN PENNSYLVANIA

CITY           SKY/WX    TMP DP  RH WIND       PRES   REMARKS
SCRANTON       LGT RAIN  41  39  93 W7        30.26F
MOUNT POCONO   CLOUDY    37  37 100 VRB6      30.27S
ALLENTOWN      CLOUDY    41  37  86 CALM      30.35S FOG
QUAKERTOWN*    FOG       39  39 100 CALM      30.34F VSB 1/4
READING        FOG       40  40 100 CALM      30.33S VSB 1/4
LANCASTER      FOG       42  42 100 E5        30.33S VSB 1
COATESVILLE    MIX PCPN  43 N/A N/A VRB3      30.35R VSB<1/4
POTTSTOWN      FOG       41  41 100 CALM      30.36S VSB 1
BLUE BELL      CLOUDY    43  43 100 CALM      30.36F
DOYLESTOWN     FOG       43  42  97 CALM      30.34F VSB 3/4
WILLOW GROVE   NOT AVBL
NORTH PHILA    CLOUDY    50  45  83 S3        30.36F
PHILADELPHIA   CLOUDY    48  45  89 VRB3      30.35F
$$




USA.gov is the U.S. government's official web portal to all federal, state and local government web resources and services.